Time,TemperatureF,DewpointF,PressureIn,WindDirection,WindDirectionDegrees,WindSpeedMPH,WindSpeedGustMPH,Humidity,HourlyPrecipIn,Conditions,Clouds,dailyrainin,SoftwareType,DateUTC
2013-05-10 00:01:00,78.3,75.1,30.06,ESE,120,1.0,3.0,90,0.00,,---,0.00,VWS V14.01,2013-05-10 04:01:00,
2013-05-10 00:02:00,78.3,75.1,30.06,ESE,120,0.0,3.0,90,0.00,,---,0.00,VWS V14.01,2013-05-10 04:02:00,
2013-05-10 00:07:00,78.3,75.1,30.06,ESE,120,0.0,1.0,90,0.00,,---,0.00,VWS V14.01,2013-05-10 04:07:00,
2013-05-10 00:12:00,78.3,75.1,30.06,ESE,120,0.0,2.0,90,0.00,,---,0.00,VWS V14.01,2013-05-10 04:12:00,
2013-05-10 00:17:00,78.3,75.1,30.06,ESE,120,0.0,2.0,90,0.00,,---,0.00,VWS V14.01,2013-05-10 04:17:00,
2013-05-10 00:22:00,78.3,75.1,30.06,ESE,120,0.0,2.0,90,0.00,,---,0.00,VWS V14.01,2013-05-10 04:22:00,
2013-05-10 00:27:00,78.3,75.1,30.06,ESE,120,0.0,2.0,90,0.00,,---,0.00,VWS V14.01,2013-05-10 04:27:00,
2013-05-10 00:32:00,78.3,75.1,30.06,ESE,120,0.0,2.0,90,0.00,,---,0.00,VWS V14.01,2013-05-10 04:32:00,
2013-05-10 00:37:00,78.3,75.1,30.06,ESE,120,0.0,0.0,90,0.00,,---,0.00,VWS V14.01,2013-05-10 04:37:00,
2013-05-10 00:42:00,78.3,75.1,30.06,ESE,120,0.0,0.0,90,0.00,,---,0.00,VWS V14.01,2013-05-10 04:42:00,
2013-05-10 00:47:00,78.3,75.1,30.06,ESE,120,0.0,1.0,90,0.00,,---,0.00,VWS V14.01,2013-05-10 04:47:00,
2013-05-10 00:53:00,78.1,74.9,30.06,ESE,120,0.0,1.0,90,0.00,,---,0.00,VWS V14.01,2013-05-10 04:53:00,
2013-05-10 00:58:00,78.1,74.9,30.06,ESE,120,2.0,2.0,90,0.00,,---,0.00,VWS V14.01,2013-05-10 04:58:00,
2013-05-10 01:03:00,78.1,74.9,30.06,ESE,120,0.0,2.0,90,0.00,,---,0.00,VWS V14.01,2013-05-10 05:03:00,
2013-05-10 01:08:00,78.1,74.9,30.06,ESE,120,0.0,0.0,90,0.00,,---,0.00,VWS V14.01,2013-05-10 05:08:00,
2013-05-10 01:13:00,78.1,74.9,30.06,ESE,120,0.0,0.0,90,0.00,,---,0.00,VWS V14.01,2013-05-10 05:13:00,
2013-05-10 01:18:00,78.1,74.9,30.05,ESE,120,0.0,0.0,90,0.00,,---,0.00,VWS V14.01,2013-05-10 05:18:00,
2013-05-10 01:23:00,78.1,74.9,30.05,ESE,120,0.0,0.0,90,0.00,,---,0.00,VWS V14.01,2013-05-10 05:23:00,
2013-05-10 01:28:00,77.9,74.7,30.05,ESE,120,0.0,0.0,90,0.00,,---,0.00,VWS V14.01,2013-05-10 05:28:00,
2013-05-10 01:33:00,77.9,74.7,30.05,ESE,120,0.0,0.0,90,0.00,,---,0.00,VWS V14.01,2013-05-10 05:33:00,
2013-05-10 01:38:00,77.9,74.7,30.05,ESE,120,0.0,0.0,90,0.00,,---,0.00,VWS V14.01,2013-05-10 05:38:00,
2013-05-10 01:43:00,77.7,74.5,30.05,ESE,120,0.0,0.0,90,0.00,,---,0.00,VWS V14.01,2013-05-10 05:43:00,
2013-05-10 01:48:00,77.7,74.5,30.03,ESE,120,0.0,0.0,90,0.00,,---,0.00,VWS V14.01,2013-05-10 05:48:00,
2013-05-10 01:53:00,77.6,74.4,30.03,ESE,120,0.0,0.0,90,0.00,,---,0.00,VWS V14.01,2013-05-10 05:53:00,
2013-05-10 01:58:00,77.4,74.6,30.03,ESE,120,0.0,0.0,91,0.00,,---,0.00,VWS V14.01,2013-05-10 05:58:00,
2013-05-10 02:03:00,77.4,74.6,30.03,ESE,120,0.0,0.0,91,0.00,,---,0.00,VWS V14.01,2013-05-10 06:03:00,
2013-05-10 02:08:00,77.2,74.4,30.03,ESE,120,0.0,0.0,91,0.00,,---,0.00,VWS V14.01,2013-05-10 06:08:00,
2013-05-10 02:13:00,77.2,74.4,30.03,ESE,120,0.0,0.0,91,0.00,,---,0.00,VWS V14.01,2013-05-10 06:13:00,
2013-05-10 02:18:00,77.0,74.5,30.02,ESE,120,0.0,0.0,92,0.00,,---,0.00,VWS V14.01,2013-05-10 06:18:00,
2013-05-10 02:23:00,77.0,74.5,30.02,ESE,120,0.0,0.0,92,0.00,,---,0.00,VWS V14.01,2013-05-10 06:23:00,
2013-05-10 02:28:00,76.8,74.3,30.02,ESE,120,0.0,0.0,92,0.00,,---,0.00,VWS V14.01,2013-05-10 06:28:00,
2013-05-10 02:33:00,76.8,74.3,30.02,ESE,120,0.0,0.0,92,0.00,,---,0.00,VWS V14.01,2013-05-10 06:33:00,
2013-05-10 02:38:00,76.7,74.2,30.02,ESE,120,0.0,0.0,92,0.00,,---,0.00,VWS V14.01,2013-05-10 06:38:00,
2013-05-10 02:43:00,76.7,74.2,30.02,ESE,120,0.0,0.0,92,0.00,,---,0.00,VWS V14.01,2013-05-10 06:43:00,
2013-05-10 02:48:00,76.7,74.5,30.02,ESE,120,0.0,0.0,93,0.00,,---,0.00,VWS V14.01,2013-05-10 06:48:00,
2013-05-10 02:54:00,76.5,74.3,30.02,ESE,120,0.0,0.0,93,0.00,,---,0.00,VWS V14.01,2013-05-10 06:54:00,
2013-05-10 02:59:00,76.5,74.3,30.02,ESE,120,0.0,0.0,93,0.00,,---,0.00,VWS V14.01,2013-05-10 06:59:00,
2013-05-10 03:04:00,76.5,74.7,30.02,ESE,120,0.0,0.0,94,0.00,,---,0.00,VWS V14.01,2013-05-10 07:04:00,
2013-05-10 03:09:00,76.5,74.7,30.02,ESE,120,0.0,0.0,94,0.00,,---,0.00,VWS V14.01,2013-05-10 07:09:00,
2013-05-10 03:14:00,76.5,74.7,30.02,ESE,120,0.0,0.0,94,0.00,,---,0.00,VWS V14.01,2013-05-10 07:14:00,
2013-05-10 03:19:00,76.5,74.7,30.00,ESE,120,0.0,0.0,94,0.00,,---,0.00,VWS V14.01,2013-05-10 07:19:00,
2013-05-10 03:24:00,76.5,74.7,30.00,ESE,120,0.0,0.0,94,0.00,,---,0.00,VWS V14.01,2013-05-10 07:24:00,
2013-05-10 03:29:00,76.3,74.4,30.00,ESE,120,0.0,0.0,94,0.00,,---,0.00,VWS V14.01,2013-05-10 07:29:00,
2013-05-10 03:34:00,76.3,74.4,30.00,ESE,120,0.0,0.0,94,0.00,,---,0.00,VWS V14.01,2013-05-10 07:34:00,
2013-05-10 03:39:00,76.3,74.4,30.00,ESE,120,0.0,0.0,94,0.00,,---,0.00,VWS V14.01,2013-05-10 07:39:00,
2013-05-10 03:44:00,76.3,74.4,30.00,ESE,120,0.0,0.0,94,0.00,,---,0.00,VWS V14.01,2013-05-10 07:44:00,
2013-05-10 03:49:00,76.1,74.6,30.00,ESE,120,0.0,0.0,95,0.00,,---,0.00,VWS V14.01,2013-05-10 07:49:00,
2013-05-10 03:55:00,76.1,74.6,30.00,ESE,120,0.0,0.0,95,0.00,,---,0.00,VWS V14.01,2013-05-10 07:55:00,
2013-05-10 04:00:00,76.0,74.5,30.00,ESE,120,0.0,0.0,95,0.00,,---,0.00,VWS V14.01,2013-05-10 08:00:00,
2013-05-10 04:05:00,76.0,74.5,30.00,ESE,120,0.0,0.0,95,0.00,,---,0.00,VWS V14.01,2013-05-10 08:05:00,
2013-05-10 04:10:00,76.0,74.5,30.00,ESE,120,0.0,0.0,95,0.00,,---,0.00,VWS V14.01,2013-05-10 08:10:00,
2013-05-10 04:15:00,76.0,74.5,30.00,ESE,120,0.0,0.0,95,0.00,,---,0.00,VWS V14.01,2013-05-10 08:15:00,
2013-05-10 04:20:00,75.8,74.3,30.00,ESE,120,0.0,0.0,95,0.00,,---,0.00,VWS V14.01,2013-05-10 08:20:00,
2013-05-10 04:25:00,75.8,74.3,30.00,ESE,120,0.0,0.0,95,0.00,,---,0.00,VWS V14.01,2013-05-10 08:25:00,
2013-05-10 04:30:00,75.8,74.6,30.00,ESE,120,0.0,0.0,96,0.00,,---,0.00,VWS V14.01,2013-05-10 08:30:00,
2013-05-10 04:35:00,75.6,74.4,30.01,ESE,119,1.0,4.0,96,0.00,,---,0.00,VWS V14.01,2013-05-10 08:35:00,
2013-05-10 04:40:00,75.4,73.9,30.01,ESE,120,0.0,4.0,95,0.00,,---,0.00,VWS V14.01,2013-05-10 08:40:00,
2013-05-10 04:45:00,75.4,73.6,30.01,ESE,120,0.0,4.0,94,0.00,,---,0.00,VWS V14.01,2013-05-10 08:45:00,
2013-05-10 04:50:00,75.3,73.5,30.00,ESE,120,0.0,4.0,94,0.00,,---,0.00,VWS V14.01,2013-05-10 08:50:00,
2013-05-10 04:55:00,75.3,73.1,30.00,ESE,120,0.0,4.0,93,0.00,,---,0.00,VWS V14.01,2013-05-10 08:55:00,
2013-05-10 05:00:00,75.1,72.6,30.00,ESE,120,0.0,4.0,92,0.00,,---,0.00,VWS V14.01,2013-05-10 09:00:00,
2013-05-10 05:05:00,74.9,72.1,30.00,ESE,120,0.0,0.0,91,0.00,,---,0.00,VWS V14.01,2013-05-10 09:05:00,
2013-05-10 05:10:00,74.7,71.6,30.00,ESE,120,3.0,3.0,90,0.00,,---,0.00,VWS V14.01,2013-05-10 09:10:00,
2013-05-10 05:15:00,74.6,70.8,30.00,ESE,120,1.0,3.0,88,0.00,,---,0.00,VWS V14.01,2013-05-10 09:15:00,
2013-05-10 05:20:00,74.4,69.9,30.00,ESE,122,1.0,5.0,86,0.00,,---,0.00,VWS V14.01,2013-05-10 09:20:00,
2013-05-10 05:25:00,74.4,69.6,30.00,ESE,123,0.0,5.0,85,0.00,,---,0.00,VWS V14.01,2013-05-10 09:25:00,
2013-05-10 05:30:00,74.4,69.3,30.00,ESE,123,0.0,5.0,84,0.00,,---,0.00,VWS V14.01,2013-05-10 09:30:00,
2013-05-10 05:35:00,74.4,69.3,30.00,ESE,123,0.0,3.0,84,0.00,,---,0.00,VWS V14.01,2013-05-10 09:35:00,
2013-05-10 05:40:00,74.2,69.4,30.00,ESE,123,0.0,3.0,85,0.00,,---,0.00,VWS V14.01,2013-05-10 09:40:00,
2013-05-10 05:45:00,74.2,69.4,30.00,ESE,123,0.0,3.0,85,0.00,,---,0.00,VWS V14.01,2013-05-10 09:45:00,
2013-05-10 05:50:00,74.2,69.4,30.00,ESE,123,0.0,3.0,85,0.00,,---,0.00,VWS V14.01,2013-05-10 09:50:00,
2013-05-10 05:56:00,74.0,69.6,30.00,ESE,123,0.0,3.0,86,0.00,,---,0.00,VWS V14.01,2013-05-10 09:56:00,
2013-05-10 06:01:00,73.9,69.4,30.00,ESE,123,0.0,3.0,86,0.00,,---,0.00,VWS V14.01,2013-05-10 10:01:00,
2013-05-10 06:06:00,73.7,69.3,30.00,ESE,123,0.0,0.0,86,0.00,,---,0.00,VWS V14.01,2013-05-10 10:06:00,
2013-05-10 06:11:00,73.7,69.6,30.00,ESE,123,0.0,0.0,87,0.00,,---,0.00,VWS V14.01,2013-05-10 10:11:00,
2013-05-10 06:16:00,73.5,69.7,30.00,ESE,123,0.0,0.0,88,0.00,,---,0.00,VWS V14.01,2013-05-10 10:16:00,
2013-05-10 06:21:00,73.5,69.7,30.00,ESE,123,0.0,0.0,88,0.00,,---,0.00,VWS V14.01,2013-05-10 10:21:00,
2013-05-10 06:26:00,73.3,69.9,30.00,ESE,123,0.0,0.0,89,0.00,,---,0.00,VWS V14.01,2013-05-10 10:26:00,
2013-05-10 06:31:00,73.3,69.9,30.00,ESE,123,0.0,0.0,89,0.00,,---,0.00,VWS V14.01,2013-05-10 10:31:00,
2013-05-10 06:36:00,73.2,70.1,30.00,ESE,123,0.0,2.0,90,0.00,,---,0.00,VWS V14.01,2013-05-10 10:36:00,
2013-05-10 06:41:00,73.2,70.4,30.00,ESE,123,0.0,2.0,91,0.00,,---,0.00,VWS V14.01,2013-05-10 10:41:00,
2013-05-10 06:46:00,73.2,70.4,30.00,ESE,123,0.0,2.0,91,0.00,,---,0.00,VWS V14.01,2013-05-10 10:46:00,
2013-05-10 06:51:00,73.0,70.5,30.01,ESE,123,0.0,2.0,92,0.00,,---,0.00,VWS V14.01,2013-05-10 10:51:00,
2013-05-10 06:56:00,73.0,70.5,30.01,ESE,123,0.0,2.0,92,0.00,,---,0.00,VWS V14.01,2013-05-10 10:56:00,
2013-05-10 07:01:00,73.0,70.5,30.01,ESE,123,0.0,2.0,92,0.00,,---,0.00,VWS V14.01,2013-05-10 11:01:00,
2013-05-10 07:06:00,72.8,70.7,30.01,ESE,123,0.0,0.0,93,0.00,,---,0.00,VWS V14.01,2013-05-10 11:06:00,
2013-05-10 07:11:00,73.0,70.9,30.01,ESE,123,0.0,0.0,93,0.00,,---,0.00,VWS V14.01,2013-05-10 11:11:00,
2013-05-10 07:16:00,73.0,71.2,30.01,ESE,123,0.0,0.0,94,0.00,,---,0.00,VWS V14.01,2013-05-10 11:16:00,
2013-05-10 07:21:00,73.2,71.4,30.01,ESE,123,0.0,0.0,94,0.00,,---,0.00,VWS V14.01,2013-05-10 11:21:00,
2013-05-10 07:26:00,73.2,71.4,30.01,ESE,123,0.0,0.0,94,0.00,,---,0.00,VWS V14.01,2013-05-10 11:26:00,
2013-05-10 07:31:00,73.5,71.7,30.01,ESE,123,0.0,0.0,94,0.00,,---,0.00,VWS V14.01,2013-05-10 11:31:00,
2013-05-10 07:37:00,73.7,71.9,30.01,ESE,123,0.0,0.0,94,0.00,,---,0.00,VWS V14.01,2013-05-10 11:37:00,
2013-05-10 07:42:00,74.0,72.2,30.01,ESE,123,0.0,0.0,94,0.00,,---,0.00,VWS V14.01,2013-05-10 11:42:00,
2013-05-10 07:47:00,74.4,72.2,30.01,ESE,123,0.0,1.0,93,0.00,,---,0.00,VWS V14.01,2013-05-10 11:47:00,
2013-05-10 07:52:00,74.7,72.2,30.01,ESE,123,0.0,2.0,92,0.00,,---,0.00,VWS V14.01,2013-05-10 11:52:00,
2013-05-10 07:57:00,75.3,72.2,30.01,ESE,123,0.0,2.0,90,0.00,,---,0.00,VWS V14.01,2013-05-10 11:57:00,
2013-05-10 08:02:00,75.6,72.1,30.01,ESE,123,1.0,3.0,89,0.00,,---,0.00,VWS V14.01,2013-05-10 12:02:00,
2013-05-10 08:07:00,76.0,71.9,30.01,ESE,123,0.0,0.0,87,0.00,,---,0.00,VWS V14.01,2013-05-10 12:07:00,
2013-05-10 08:12:00,76.5,71.7,30.01,ESE,123,4.0,4.0,85,0.00,,---,0.00,VWS V14.01,2013-05-10 12:12:00,
2013-05-10 08:17:00,77.0,71.4,30.01,ESE,123,2.0,4.0,83,0.00,,---,0.00,VWS V14.01,2013-05-10 12:17:00,
2013-05-10 08:22:00,77.6,71.7,30.01,ESE,121,2.0,4.0,82,0.00,,---,0.00,VWS V14.01,2013-05-10 12:22:00,
2013-05-10 08:27:00,77.9,71.2,30.01,ESE,109,4.0,4.0,80,0.00,,---,0.00,VWS V14.01,2013-05-10 12:27:00,
2013-05-10 08:32:00,78.5,71.4,30.02,ESE,109,1.0,4.0,79,0.00,,---,0.00,VWS V14.01,2013-05-10 12:32:00,
2013-05-10 08:37:00,79.0,71.6,30.02,ESE,108,2.0,3.0,78,0.00,,---,0.00,VWS V14.01,2013-05-10 12:37:00,
2013-05-10 08:42:00,79.6,72.1,30.02,ESE,110,0.0,3.0,78,0.00,,---,0.00,VWS V14.01,2013-05-10 12:42:00,
2013-05-10 08:47:00,80.1,72.6,30.02,ESE,105,3.0,5.0,78,0.00,,---,0.00,VWS V14.01,2013-05-10 12:47:00,
2013-05-10 08:52:00,80.7,73.2,30.02,East,99,2.0,5.0,78,0.00,,---,0.00,VWS V14.01,2013-05-10 12:52:00,
2013-05-10 08:57:00,80.9,73.8,30.02,ESE,107,0.0,5.0,79,0.00,,---,0.00,VWS V14.01,2013-05-10 12:57:00,
2013-05-10 09:02:00,81.2,74.4,30.03,ESE,107,3.0,5.0,80,0.00,,---,0.00,VWS V14.01,2013-05-10 13:02:00,
2013-05-10 09:07:00,81.6,74.5,30.03,ESE,109,1.0,4.0,79,0.00,,---,0.00,VWS V14.01,2013-05-10 13:07:00,
2013-05-10 09:12:00,81.8,74.3,30.03,ESE,113,0.0,4.0,78,0.00,,---,0.00,VWS V14.01,2013-05-10 13:12:00,
2013-05-10 09:17:00,82.2,74.3,30.03,ESE,105,3.0,4.0,77,0.00,,---,0.00,VWS V14.01,2013-05-10 13:17:00,
2013-05-10 09:22:00,82.4,73.7,30.03,East,92,2.0,5.0,75,0.00,,---,0.00,VWS V14.01,2013-05-10 13:22:00,
2013-05-10 09:27:00,82.6,73.1,30.03,ESE,114,3.0,5.0,73,0.00,,---,0.00,VWS V14.01,2013-05-10 13:27:00,
2013-05-10 09:32:00,82.8,72.4,30.03,East,87,4.0,7.0,71,0.00,,---,0.00,VWS V14.01,2013-05-10 13:32:00,
2013-05-10 09:38:00,83.2,72.0,30.03,ESE,103,3.0,10.0,69,0.00,,---,0.00,VWS V14.01,2013-05-10 13:38:00,
2013-05-10 09:43:00,83.6,71.9,30.03,ESE,120,5.0,10.0,68,0.00,,---,0.00,VWS V14.01,2013-05-10 13:43:00,
2013-05-10 09:48:00,84.0,72.3,30.03,ESE,113,5.0,10.0,68,0.00,,---,0.00,VWS V14.01,2013-05-10 13:48:00,
2013-05-10 09:53:00,84.3,73.0,30.03,ESE,103,1.0,10.0,69,0.00,,---,0.00,VWS V14.01,2013-05-10 13:53:00,
2013-05-10 09:58:00,84.5,72.8,30.03,ESE,105,3.0,10.0,68,0.00,,---,0.00,VWS V14.01,2013-05-10 13:58:00,
2013-05-10 10:03:00,84.7,73.0,30.03,East,88,4.0,10.0,68,0.00,,---,0.00,VWS V14.01,2013-05-10 14:03:00,
2013-05-10 10:08:00,84.9,73.6,30.03,SE,130,2.0,10.0,69,0.00,,---,0.00,VWS V14.01,2013-05-10 14:08:00,
2013-05-10 10:13:00,85.1,73.8,30.03,ESE,109,5.0,10.0,69,0.00,,---,0.00,VWS V14.01,2013-05-10 14:13:00,
2013-05-10 10:18:00,85.5,74.6,30.03,SSE,147,11.0,11.0,70,0.00,,---,0.00,VWS V14.01,2013-05-10 14:18:00,
2013-05-10 10:23:00,85.3,74.0,30.03,ESE,121,1.0,11.0,69,0.00,,---,0.00,VWS V14.01,2013-05-10 14:23:00,
2013-05-10 10:28:00,85.3,74.0,30.03,ESE,105,4.0,11.0,69,0.00,,---,0.00,VWS V14.01,2013-05-10 14:28:00,
2013-05-10 10:33:00,85.1,73.8,30.04,ESE,102,3.0,11.0,69,0.00,,---,0.00,VWS V14.01,2013-05-10 14:33:00,
2013-05-10 10:38:00,85.5,73.7,30.04,ESE,113,4.0,4.0,68,0.00,,---,0.00,VWS V14.01,2013-05-10 14:38:00,
2013-05-10 10:43:00,85.7,73.5,30.04,SE,130,7.0,7.0,67,0.00,,---,0.00,VWS V14.01,2013-05-10 14:43:00,
2013-05-10 10:48:00,85.7,73.0,30.04,East,97,3.0,7.0,66,0.00,,---,0.00,VWS V14.01,2013-05-10 14:48:00,
2013-05-10 10:53:00,86.1,73.0,30.04,East,90,5.0,10.0,65,0.00,,---,0.00,VWS V14.01,2013-05-10 14:53:00,
2013-05-10 10:58:00,86.3,74.1,30.04,East,90,2.0,10.0,67,0.00,,---,0.00,VWS V14.01,2013-05-10 14:58:00,
2013-05-10 11:03:00,86.3,72.7,30.04,East,90,4.0,6.0,64,0.00,,---,0.00,VWS V14.01,2013-05-10 15:03:00,
2013-05-10 11:08:00,85.9,73.7,30.04,East,96,0.0,6.0,67,0.00,,---,0.00,VWS V14.01,2013-05-10 15:08:00,
2013-05-10 11:13:00,85.7,72.6,30.04,ESE,107,6.0,7.0,65,0.00,,---,0.00,VWS V14.01,2013-05-10 15:13:00,
2013-05-10 11:18:00,85.9,72.8,30.04,ESE,121,8.0,8.0,65,0.00,,---,0.00,VWS V14.01,2013-05-10 15:18:00,
2013-05-10 11:23:00,86.3,72.7,30.04,ESE,121,2.0,8.0,64,0.00,,---,0.00,VWS V14.01,2013-05-10 15:23:00,
2013-05-10 11:29:00,86.7,72.1,30.04,ESE,123,2.0,8.0,62,0.00,,---,0.00,VWS V14.01,2013-05-10 15:29:00,
2013-05-10 11:34:00,87.4,72.8,30.03,East,88,4.0,7.0,62,0.00,,---,0.00,VWS V14.01,2013-05-10 15:34:00,
2013-05-10 11:39:00,87.6,72.5,30.03,ESE,104,0.0,7.0,61,0.00,,---,0.00,VWS V14.01,2013-05-10 15:39:00,
2013-05-10 11:44:00,88.0,72.4,30.03,ESE,108,2.0,7.0,60,0.00,,---,0.00,VWS V14.01,2013-05-10 15:44:00,
2013-05-10 11:49:00,88.2,72.1,30.03,ESE,115,2.0,7.0,59,0.00,,---,0.00,VWS V14.01,2013-05-10 15:49:00,
2013-05-10 11:54:00,88.6,71.9,30.03,East,98,6.0,7.0,58,0.00,,---,0.00,VWS V14.01,2013-05-10 15:54:00,
2013-05-10 11:59:00,88.8,71.6,30.03,East,90,4.0,7.0,57,0.00,,---,0.00,VWS V14.01,2013-05-10 15:59:00,
2013-05-10 12:04:00,89.0,71.8,30.02,ESE,117,0.0,1.0,57,0.00,,---,0.00,VWS V14.01,2013-05-10 16:04:00,
2013-05-10 12:09:00,88.8,71.6,30.02,SSW,207,0.0,5.0,57,0.00,,---,0.00,VWS V14.01,2013-05-10 16:09:00,
2013-05-10 12:14:00,89.0,71.3,30.02,South,174,2.0,5.0,56,0.00,,---,0.00,VWS V14.01,2013-05-10 16:14:00,
2013-05-10 12:19:00,89.3,72.6,30.02,South,171,0.0,5.0,58,0.00,,---,0.00,VWS V14.01,2013-05-10 16:19:00,
2013-05-10 12:24:00,89.5,71.2,30.02,South,180,3.0,5.0,55,0.00,,---,0.00,VWS V14.01,2013-05-10 16:24:00,
2013-05-10 12:29:00,89.5,72.3,30.02,ESE,113,4.0,5.0,57,0.00,,---,0.00,VWS V14.01,2013-05-10 16:29:00,
2013-05-10 12:34:00,89.9,72.1,30.01,SSE,147,1.0,2.0,56,0.00,,---,0.00,VWS V14.01,2013-05-10 16:34:00,
2013-05-10 12:39:00,90.3,71.9,30.01,SE,142,4.0,4.0,55,0.00,,---,0.00,VWS V14.01,2013-05-10 16:39:00,
2013-05-10 12:44:00,90.7,71.8,30.01,SE,131,3.0,9.0,54,0.00,,---,0.00,VWS V14.01,2013-05-10 16:44:00,
2013-05-10 12:49:00,91.2,71.1,30.00,ESE,118,1.0,9.0,52,0.00,,---,0.00,VWS V14.01,2013-05-10 16:49:00,
2013-05-10 12:54:00,91.6,70.9,30.00,SE,142,1.0,9.0,51,0.00,,---,0.00,VWS V14.01,2013-05-10 16:54:00,
2013-05-10 12:59:00,91.8,69.9,30.00,ESE,113,5.0,9.0,49,0.00,,---,0.00,VWS V14.01,2013-05-10 16:59:00,
2013-05-10 13:04:00,91.6,70.3,30.00,East,98,6.0,8.0,50,0.00,,---,0.00,VWS V14.01,2013-05-10 17:04:00,
2013-05-10 13:09:00,91.6,70.9,30.00,SE,136,2.0,8.0,51,0.00,,---,0.00,VWS V14.01,2013-05-10 17:09:00,
2013-05-10 13:14:00,91.8,70.5,30.00,SE,129,0.0,8.0,50,0.00,,---,0.00,VWS V14.01,2013-05-10 17:14:00,
2013-05-10 13:19:00,92.1,70.2,30.00,ESE,103,5.0,9.0,49,0.00,,---,0.00,VWS V14.01,2013-05-10 17:19:00,
2013-05-10 13:25:00,92.1,70.8,30.00,East,91,4.0,9.0,50,0.00,,---,0.00,VWS V14.01,2013-05-10 17:25:00,
2013-05-10 13:30:00,91.6,70.3,30.00,East,86,7.0,9.0,50,0.00,,---,0.00,VWS V14.01,2013-05-10 17:30:00,
2013-05-10 13:35:00,91.6,70.3,30.00,ESE,109,3.0,7.0,50,0.00,,---,0.00,VWS V14.01,2013-05-10 17:35:00,
2013-05-10 13:40:00,91.2,70.6,30.00,East,95,3.0,10.0,51,0.00,,---,0.00,VWS V14.01,2013-05-10 17:40:00,
2013-05-10 13:45:00,91.2,70.0,30.00,ESE,105,10.0,10.0,50,0.00,,---,0.00,VWS V14.01,2013-05-10 17:45:00,
2013-05-10 13:50:00,91.2,70.6,30.00,ENE,70,8.0,10.0,51,0.00,,---,0.00,VWS V14.01,2013-05-10 17:50:00,
2013-05-10 13:55:00,91.0,70.9,30.00,SE,134,7.0,14.0,52,0.00,,---,0.00,VWS V14.01,2013-05-10 17:55:00,
2013-05-10 14:00:00,90.7,71.2,30.00,ENE,69,6.0,14.0,53,0.00,,---,0.00,VWS V14.01,2013-05-10 18:00:00,
2013-05-10 14:05:00,90.3,70.3,30.00,East,85,7.0,12.0,52,0.00,,---,0.00,VWS V14.01,2013-05-10 18:05:00,
2013-05-10 14:10:00,90.3,71.4,30.00,ESE,108,6.0,13.0,54,0.00,,---,0.00,VWS V14.01,2013-05-10 18:10:00,
2013-05-10 14:15:00,90.1,71.2,30.00,SE,131,5.0,13.0,54,0.00,,---,0.00,VWS V14.01,2013-05-10 18:15:00,
2013-05-10 14:20:00,90.1,70.7,30.00,ESE,109,5.0,13.0,53,0.00,,---,0.00,VWS V14.01,2013-05-10 18:20:00,
2013-05-10 14:25:00,90.3,70.9,30.00,East,87,6.0,13.0,53,0.00,,---,0.00,VWS V14.01,2013-05-10 18:25:00,
2013-05-10 14:30:00,90.3,69.7,30.00,ESE,123,3.0,13.0,51,0.00,,---,0.00,VWS V14.01,2013-05-10 18:30:00,
2013-05-10 14:35:00,90.5,69.9,30.00,ESE,109,7.0,7.0,51,0.00,,---,0.00,VWS V14.01,2013-05-10 18:35:00,
2013-05-10 14:40:00,89.9,69.9,30.00,SE,132,3.0,11.0,52,0.00,,---,0.00,VWS V14.01,2013-05-10 18:40:00,
2013-05-10 14:45:00,89.9,69.4,30.00,SE,131,3.0,11.0,51,0.00,,---,0.00,VWS V14.01,2013-05-10 18:45:00,
2013-05-10 14:50:00,89.5,70.1,29.99,ESE,108,6.0,11.0,53,0.00,,---,0.00,VWS V14.01,2013-05-10 18:50:00,
2013-05-10 14:55:00,89.7,70.3,29.99,ESE,103,5.0,11.0,53,0.00,,---,0.00,VWS V14.01,2013-05-10 18:55:00,
2013-05-10 15:00:00,89.7,70.9,29.99,SE,134,5.0,11.0,54,0.00,,---,0.00,VWS V14.01,2013-05-10 19:00:00,
2013-05-10 15:05:00,89.5,70.1,29.99,ESE,108,6.0,9.0,53,0.00,,---,0.00,VWS V14.01,2013-05-10 19:05:00,
2013-05-10 15:10:00,89.9,70.5,29.99,ESE,115,2.0,9.0,53,0.00,,---,0.00,VWS V14.01,2013-05-10 19:10:00,
2013-05-10 15:15:00,90.3,70.9,29.99,East,93,3.0,9.0,53,0.00,,---,0.00,VWS V14.01,2013-05-10 19:15:00,
2013-05-10 15:20:00,90.5,70.5,29.99,East,101,2.0,10.0,52,0.00,,---,0.00,VWS V14.01,2013-05-10 19:20:00,
2013-05-10 15:26:00,90.5,70.5,29.99,ESE,109,6.0,10.0,52,0.00,,---,0.00,VWS V14.01,2013-05-10 19:26:00,
2013-05-10 15:31:00,89.9,69.9,29.99,ESE,107,9.0,10.0,52,0.00,,---,0.00,VWS V14.01,2013-05-10 19:31:00,
2013-05-10 15:36:00,89.3,70.5,29.97,SE,125,10.0,10.0,54,0.00,,---,0.00,VWS V14.01,2013-05-10 19:36:00,
2013-05-10 15:41:00,88.8,70.6,29.97,SE,128,3.0,11.0,55,0.00,,---,0.00,VWS V14.01,2013-05-10 19:41:00,
2013-05-10 15:46:00,89.3,72.1,29.97,SE,129,0.0,11.0,57,0.00,,---,0.00,VWS V14.01,2013-05-10 19:46:00,
2013-05-10 15:51:00,89.0,71.8,29.97,SE,126,2.0,11.0,57,0.00,,---,0.00,VWS V14.01,2013-05-10 19:51:00,
2013-05-10 15:56:00,89.3,72.1,29.97,SE,127,1.0,11.0,57,0.00,,---,0.00,VWS V14.01,2013-05-10 19:56:00,
2013-05-10 16:01:00,89.0,71.8,29.97,East,85,4.0,11.0,57,0.00,,---,0.00,VWS V14.01,2013-05-10 20:01:00,
2013-05-10 16:06:00,88.4,70.7,29.97,ESE,108,6.0,7.0,56,0.00,,---,0.00,VWS V14.01,2013-05-10 20:06:00,
2013-05-10 16:11:00,88.2,71.1,29.97,East,84,7.0,11.0,57,0.00,,---,0.00,VWS V14.01,2013-05-10 20:11:00,
2013-05-10 16:16:00,88.2,71.1,29.97,ESE,115,5.0,11.0,57,0.00,,---,0.00,VWS V14.01,2013-05-10 20:16:00,
2013-05-10 16:21:00,88.4,71.2,29.96,ESE,109,3.0,11.0,57,0.00,,---,0.00,VWS V14.01,2013-05-10 20:21:00,
2013-05-10 16:26:00,88.8,72.1,29.96,SE,142,0.0,11.0,58,0.00,,---,0.00,VWS V14.01,2013-05-10 20:26:00,
2013-05-10 16:31:00,89.3,72.6,29.96,SE,133,1.0,11.0,58,0.00,,---,0.00,VWS V14.01,2013-05-10 20:31:00,
2013-05-10 16:36:00,88.8,71.6,29.96,SE,142,2.0,5.0,57,0.00,,---,0.00,VWS V14.01,2013-05-10 20:36:00,
2013-05-10 16:41:00,88.2,72.6,29.96,ESE,109,3.0,6.0,60,0.00,,---,0.00,VWS V14.01,2013-05-10 20:41:00,
2013-05-10 16:46:00,87.6,72.0,29.96,SE,130,1.0,6.0,60,0.00,,---,0.00,VWS V14.01,2013-05-10 20:46:00,
2013-05-10 16:51:00,87.0,71.4,29.96,SE,144,4.0,6.0,60,0.00,,---,0.00,VWS V14.01,2013-05-10 20:51:00,
2013-05-10 16:56:00,86.3,71.8,29.96,ESE,118,6.0,9.0,62,0.00,,---,0.00,VWS V14.01,2013-05-10 20:56:00,
2013-05-10 17:01:00,85.5,72.4,29.96,ESE,114,6.0,9.0,65,0.00,,---,0.00,VWS V14.01,2013-05-10 21:01:00,
2013-05-10 17:06:00,84.9,72.3,29.96,ESE,109,3.0,9.0,66,0.00,,---,0.00,VWS V14.01,2013-05-10 21:06:00,
2013-05-10 17:11:00,84.5,72.3,29.96,ESE,102,5.0,9.0,67,0.00,,---,0.00,VWS V14.01,2013-05-10 21:11:00,
2013-05-10 17:16:00,84.1,72.4,29.96,East,89,4.0,9.0,68,0.00,,---,0.00,VWS V14.01,2013-05-10 21:16:00,
2013-05-10 17:22:00,84.0,72.7,29.97,SE,130,3.0,9.0,69,0.00,,---,0.00,VWS V14.01,2013-05-10 21:22:00,
2013-05-10 17:27:00,83.8,72.6,29.97,ESE,123,2.0,9.0,69,0.00,,---,0.00,VWS V14.01,2013-05-10 21:27:00,
2013-05-10 17:32:00,83.8,73.0,29.97,SE,125,1.0,10.0,70,0.00,,---,0.00,VWS V14.01,2013-05-10 21:32:00,
2013-05-10 17:37:00,83.6,72.8,29.97,ESE,110,1.0,3.0,70,0.00,,---,0.00,VWS V14.01,2013-05-10 21:37:00,
2013-05-10 17:42:00,83.4,73.0,29.97,SE,126,2.0,5.0,71,0.00,,---,0.00,VWS V14.01,2013-05-10 21:42:00,
2013-05-10 17:47:00,83.4,73.4,29.96,SE,140,3.0,5.0,72,0.00,,---,0.00,VWS V14.01,2013-05-10 21:47:00,
2013-05-10 17:52:00,83.2,73.2,29.96,SE,130,2.0,7.0,72,0.00,,---,0.00,VWS V14.01,2013-05-10 21:52:00,
2013-05-10 17:57:00,83.0,73.1,29.96,SE,140,3.0,7.0,72,0.00,,---,0.00,VWS V14.01,2013-05-10 21:57:00,
2013-05-10 17:58:00,83.0,73.1,29.96,SE,138,0.0,7.0,72,0.00,,---,0.00,VWS V14.01,2013-05-10 21:58:00,
2013-05-10 17:59:00,83.0,73.1,29.96,SE,140,0.0,7.0,72,0.00,,---,0.00,VWS V14.01,2013-05-10 21:59:00,
2013-05-10 18:00:00,83.0,73.1,29.96,SE,140,1.0,7.0,72,0.00,,---,0.00,VWS V14.01,2013-05-10 22:00:00,
2013-05-10 18:01:00,83.0,73.1,29.96,SE,144,2.0,7.0,72,0.00,,---,0.00,VWS V14.01,2013-05-10 22:01:00,
2013-05-10 18:06:00,82.8,72.9,29.96,SE,144,1.0,1.0,72,0.00,,---,0.00,VWS V14.01,2013-05-10 22:06:00,
2013-05-10 18:11:00,82.8,72.9,29.96,SE,144,1.0,2.0,72,0.00,,---,0.00,VWS V14.01,2013-05-10 22:11:00,
2013-05-10 18:16:00,82.8,73.3,29.96,SE,130,5.0,6.0,73,0.00,,---,0.00,VWS V14.01,2013-05-10 22:16:00,
2013-05-10 18:21:00,82.6,73.1,29.97,SE,136,0.0,6.0,73,0.00,,---,0.00,VWS V14.01,2013-05-10 22:21:00,
2013-05-10 18:26:00,82.6,73.5,29.97,SE,142,1.0,6.0,74,0.00,,---,0.00,VWS V14.01,2013-05-10 22:26:00,
2013-05-10 18:31:00,82.4,73.3,29.97,SE,142,4.0,6.0,74,0.00,,---,0.00,VWS V14.01,2013-05-10 22:31:00,
2013-05-10 18:36:00,82.4,73.7,29.97,ESE,105,4.0,4.0,75,0.00,,---,0.00,VWS V14.01,2013-05-10 22:36:00,
2013-05-10 18:41:00,82.4,73.7,29.97,SE,145,2.0,4.0,75,0.00,,---,0.00,VWS V14.01,2013-05-10 22:41:00,
2013-05-10 18:46:00,82.2,72.7,29.97,SE,141,0.0,4.0,73,0.00,,---,0.00,VWS V14.01,2013-05-10 22:46:00,
2013-05-10 18:51:00,82.0,72.5,29.98,SE,130,5.0,5.0,73,0.00,,---,0.00,VWS V14.01,2013-05-10 22:51:00,
2013-05-10 18:56:00,82.0,72.9,29.98,SE,132,0.0,5.0,74,0.00,,---,0.00,VWS V14.01,2013-05-10 22:56:00,
2013-05-10 19:01:00,82.0,72.9,29.98,SE,133,3.0,5.0,74,0.00,,---,0.00,VWS V14.01,2013-05-10 23:01:00,
2013-05-10 19:06:00,82.0,72.9,29.98,SE,134,0.0,2.0,74,0.00,,---,0.00,VWS V14.01,2013-05-10 23:06:00,
2013-05-10 19:12:00,81.8,72.7,29.98,SE,133,0.0,3.0,74,0.00,,---,0.00,VWS V14.01,2013-05-10 23:12:00,
2013-05-10 19:17:00,81.8,73.1,29.98,SE,133,1.0,3.0,75,0.00,,---,0.00,VWS V14.01,2013-05-10 23:17:00,
2013-05-10 19:22:00,81.8,73.1,29.98,ESE,121,3.0,3.0,75,0.00,,---,0.00,VWS V14.01,2013-05-10 23:22:00,
2013-05-10 19:27:00,81.8,73.1,29.98,ESE,122,1.0,3.0,75,0.00,,---,0.00,VWS V14.01,2013-05-10 23:27:00,
2013-05-10 19:32:00,81.8,73.1,29.98,ESE,122,0.0,3.0,75,0.00,,---,0.00,VWS V14.01,2013-05-10 23:32:00,
2013-05-10 19:37:00,81.8,73.1,29.98,ESE,122,0.0,2.0,75,0.00,,---,0.00,VWS V14.01,2013-05-10 23:37:00,
2013-05-10 19:42:00,81.8,73.5,29.98,ESE,122,0.0,2.0,76,0.00,,---,0.00,VWS V14.01,2013-05-10 23:42:00,
2013-05-10 19:47:00,81.6,73.3,29.98,ESE,122,0.0,2.0,76,0.00,,---,0.00,VWS V14.01,2013-05-10 23:47:00,
2013-05-10 19:52:00,81.6,72.9,29.98,ESE,122,0.0,2.0,75,0.00,,---,0.00,VWS V14.01,2013-05-10 23:52:00,
2013-05-10 19:57:00,81.6,72.9,29.98,SSE,156,1.0,4.0,75,0.00,,---,0.00,VWS V14.01,2013-05-10 23:57:00,
2013-05-10 20:02:00,81.6,72.9,29.98,SSE,159,0.0,4.0,75,0.00,,---,0.00,VWS V14.01,2013-05-11 00:02:00,
2013-05-10 20:07:00,81.4,72.7,29.98,SSE,163,3.0,3.0,75,0.00,,---,0.00,VWS V14.01,2013-05-11 00:07:00,
2013-05-10 20:12:00,81.4,73.1,29.98,SSE,163,0.0,3.0,76,0.00,,---,0.00,VWS V14.01,2013-05-11 00:12:00,
2013-05-10 20:17:00,81.4,73.1,29.98,SSE,163,0.0,3.0,76,0.00,,---,0.00,VWS V14.01,2013-05-11 00:17:00,
2013-05-10 20:22:00,81.4,73.5,29.98,SSE,163,0.0,3.0,77,0.00,,---,0.00,VWS V14.01,2013-05-11 00:22:00,
2013-05-10 20:27:00,81.4,73.5,29.98,SSE,163,0.0,3.0,77,0.00,,---,0.00,VWS V14.01,2013-05-11 00:27:00,
2013-05-10 20:32:00,81.2,73.3,29.99,SSE,163,0.0,3.0,77,0.00,,---,0.00,VWS V14.01,2013-05-11 00:32:00,
2013-05-10 20:37:00,81.2,73.7,29.99,SSE,163,0.0,0.0,78,0.00,,---,0.00,VWS V14.01,2013-05-11 00:37:00,
2013-05-10 20:42:00,81.2,73.7,29.99,SSE,163,0.0,0.0,78,0.00,,---,0.00,VWS V14.01,2013-05-11 00:42:00,
2013-05-10 20:47:00,81.1,74.0,30.00,SSE,163,0.0,0.0,79,0.00,,---,0.00,VWS V14.01,2013-05-11 00:47:00,
2013-05-10 20:52:00,81.1,74.0,30.00,SSE,164,0.0,3.0,79,0.00,,---,0.00,VWS V14.01,2013-05-11 00:52:00,
2013-05-10 20:58:00,81.1,74.0,30.00,SSE,164,0.0,3.0,79,0.00,,---,0.00,VWS V14.01,2013-05-11 00:58:00,
2013-05-10 21:03:00,81.1,74.3,30.00,SSE,164,1.0,3.0,80,0.00,,---,0.00,VWS V14.01,2013-05-11 01:03:00,
2013-05-10 21:08:00,81.1,74.3,30.00,ESE,118,0.0,3.0,80,0.00,,---,0.00,VWS V14.01,2013-05-11 01:08:00,
2013-05-10 21:13:00,80.9,74.2,30.00,ESE,118,0.0,5.0,80,0.00,,---,0.00,VWS V14.01,2013-05-11 01:13:00,
2013-05-10 21:18:00,80.9,74.2,30.00,ESE,119,0.0,5.0,80,0.00,,---,0.00,VWS V14.01,2013-05-11 01:18:00,
2013-05-10 21:23:00,80.7,74.0,30.00,ESE,120,2.0,5.0,80,0.00,,---,0.00,VWS V14.01,2013-05-11 01:23:00,
2013-05-10 21:28:00,80.7,74.0,30.00,ESE,121,1.0,5.0,80,0.00,,---,0.00,VWS V14.01,2013-05-11 01:28:00,
2013-05-10 21:33:00,80.5,73.8,30.00,ESE,121,0.0,5.0,80,0.00,,---,0.00,VWS V14.01,2013-05-11 01:33:00,
2013-05-10 21:38:00,80.5,73.8,30.00,ESE,121,2.0,3.0,80,0.00,,---,0.00,VWS V14.01,2013-05-11 01:38:00,
2013-05-10 21:43:00,80.3,73.9,30.00,ESE,122,0.0,5.0,81,0.00,,---,0.00,VWS V14.01,2013-05-11 01:43:00,
2013-05-10 21:48:00,80.1,73.8,30.00,ESE,122,0.0,5.0,81,0.00,,---,0.00,VWS V14.01,2013-05-11 01:48:00,
2013-05-10 21:53:00,80.1,73.8,30.00,ESE,122,0.0,5.0,81,0.00,,---,0.00,VWS V14.01,2013-05-11 01:53:00,
2013-05-10 21:58:00,80.1,74.1,30.00,ESE,122,0.0,5.0,82,0.00,,---,0.00,VWS V14.01,2013-05-11 01:58:00,
2013-05-10 22:03:00,79.9,73.9,29.99,ESE,122,0.0,0.0,82,0.00,,---,0.00,VWS V14.01,2013-05-11 02:03:00,
2013-05-10 22:08:00,79.9,74.3,29.99,ESE,122,3.0,4.0,83,0.00,,---,0.00,VWS V14.01,2013-05-11 02:08:00,
2013-05-10 22:13:00,79.8,74.2,29.99,ESE,122,0.0,4.0,83,0.00,,---,0.00,VWS V14.01,2013-05-11 02:13:00,
2013-05-10 22:18:00,79.6,74.0,29.99,ESE,122,0.0,4.0,83,0.00,,---,0.00,VWS V14.01,2013-05-11 02:18:00,
2013-05-10 22:23:00,79.6,74.0,29.99,ESE,122,0.0,4.0,83,0.00,,---,0.00,VWS V14.01,2013-05-11 02:23:00,
2013-05-10 22:28:00,79.4,73.8,29.99,ESE,123,0.0,4.0,83,0.00,,---,0.00,VWS V14.01,2013-05-11 02:28:00,
2013-05-10 22:34:00,79.4,74.2,30.00,ESE,123,0.0,2.0,84,0.00,,---,0.00,VWS V14.01,2013-05-11 02:34:00,
2013-05-10 22:39:00,79.4,74.5,30.00,ESE,121,0.0,2.0,85,0.00,,---,0.00,VWS V14.01,2013-05-11 02:39:00,
2013-05-10 22:44:00,79.4,74.5,30.00,ESE,122,1.0,4.0,85,0.00,,---,0.00,VWS V14.01,2013-05-11 02:44:00,
2013-05-10 22:49:00,79.4,74.8,30.00,ESE,122,0.0,4.0,86,0.00,,---,0.00,VWS V14.01,2013-05-11 02:49:00,
2013-05-10 22:54:00,79.4,75.2,30.00,ESE,122,1.0,4.0,87,0.00,,---,0.00,VWS V14.01,2013-05-11 02:54:00,
2013-05-10 22:59:00,79.2,75.0,30.00,ESE,122,3.0,4.0,87,0.00,,---,0.00,VWS V14.01,2013-05-11 02:59:00,
2013-05-10 23:04:00,79.2,75.3,30.00,ESE,123,0.0,0.0,88,0.00,,---,0.00,VWS V14.01,2013-05-11 03:04:00,
2013-05-10 23:09:00,79.2,75.3,30.00,ESE,123,0.0,0.0,88,0.00,,---,0.00,VWS V14.01,2013-05-11 03:09:00,
2013-05-10 23:14:00,79.2,75.3,30.00,ESE,123,0.0,2.0,88,0.00,,---,0.00,VWS V14.01,2013-05-11 03:14:00,
2013-05-10 23:19:00,79.2,75.3,30.00,ESE,123,1.0,2.0,88,0.00,,---,0.00,VWS V14.01,2013-05-11 03:19:00,
2013-05-10 23:24:00,79.0,75.5,30.00,ESE,123,0.0,2.0,89,0.00,,---,0.00,VWS V14.01,2013-05-11 03:24:00,
2013-05-10 23:29:00,79.0,75.5,30.00,ESE,123,0.0,2.0,89,0.00,,---,0.00,VWS V14.01,2013-05-11 03:29:00,
2013-05-10 23:34:00,78.8,75.3,30.00,ESE,123,0.0,0.0,89,0.00,,---,0.00,VWS V14.01,2013-05-11 03:34:00,
2013-05-10 23:39:00,78.8,75.3,30.00,ESE,123,0.0,1.0,89,0.00,,---,0.00,VWS V14.01,2013-05-11 03:39:00,
2013-05-10 23:44:00,78.6,75.1,30.00,ESE,123,0.0,3.0,89,0.00,,---,0.00,VWS V14.01,2013-05-11 03:44:00,
2013-05-10 23:49:00,78.6,75.1,30.00,ESE,123,0.0,3.0,89,0.00,,---,0.00,VWS V14.01,2013-05-11 03:49:00,
2013-05-10 23:54:00,78.5,75.0,30.00,ESE,123,0.0,3.0,89,0.00,,---,0.00,VWS V14.01,2013-05-11 03:54:00,
2013-05-10 23:59:00,78.5,75.0,30.00,ESE,123,0.0,3.0,89,0.00,,---,0.00,VWS V14.01,2013-05-11 03:59:00,